Find Starlink 30570

NORAD ID: 58095 Int'l Des: 2023-160 Owner: SPXS Country: US Constellation: starlink operational
LEOCIRCULAR

Current View

Loading 3D Globe...

About Starlink 30570

Description loading...

Upcoming Passes

Passes for default location (London). Set your location on the main map for personalized predictions.

Altitude History

Loading altitude history...

Two-Line Element Set

1 58095U 23160W 26145.89302957 .00000580 00000-0 30613-4 0 9990
2 58095 43.0048 1.8275 0001103 270.5374 89.5352 15.27572906144751
Epoch: May 25, 2026 • Age: 16 hours

Current Status

Altitude 487.3 km
Velocity 7.62 km/s
Sub-Earth Point -20.81°S, 104.7°W
Launch Date Oct 18, 2023
Age 2.6 years
Type internet

Technical Details

Classification Payload
Mass 730.00 kg
Dry Mass 700.00 kg
Total Mass 730.00 kg
Length 0.30 m
Diameter 4.10 m
Span 29.00 m
Shape Box + pan
Manufacturer SPXS
Bus Type Starlink V2M
Phase Status In Orbit
Owner/State SPXS/US

Most Searched